Regional Weather Roundup
Issued by NWS

Home | Current Version | Previous Version | Text Only | Print | Product List | Glossary Off
Versions: 1 2 3 4 5 6 7 8 9 10 11 12 13 14 15 16 17 18 19 20 21 22 23 24 25 26 27 28 29 30 31 32 33 34 35 36 37 38 39 40 41 42 43 44 45 46 47 48 49 50

108
ASUS44 KLIX 190010
RWRLA
LOUISIANA WEATHER ROUNDUP
NATIONAL WEATHER SERVICE NEW ORLEANS LA
600 PM CST THU DEC 18 2014

NOTE: "FAIR" INDICATES FEW OR NO CLOUDS BELOW 12,000 FEET WITH NO
      SIGNIFICANT WEATHER AND/OR OBSTRUCTIONS TO VISIBILITY.
      SKY/WX - SKY CONDITION AND SIGNIFICANT WEATHER.
      TMP - AIR TEMPERATURE.    DP   - DEWPOINT TEMPERATURE.
      RH  - RELATIVE HUMIDITY.  PRES - PRESSURE.
      HX  - HEAT INDEX.         WCI  - WIND CHILL INDEX.

*  THESE STATIONS ARE NOT NWS OR FAA STATIONS AND ARE NOT UNDER
   NWS QUALITY CONTROL.

LAZ040-048-061>063-065-066-069-190100-
SOUTHEAST LOUISIANA

CITY           SKY/WX    TMP DP  RH WIND       PRES   REMARKS
N.O. AUDUBON     N/A     64  59  84 MISG        N/A
6HR MIN TEMP:  64; 6HR MAX TEMP:  69;

N.O. INTL ARPT LGT RAIN  63  56  78 E7        30.10R
6HR MIN TEMP:  63; 6HR MAX TEMP:  68; 6HR PCP: TRACE;

N.O. LAKEFRONT CLOUDY    61  55  81 NE12      30.13R
6HR MIN TEMP:  61; 6HR MAX TEMP:  67;

N.O. DOWNTOWN* CLOUDY    63  54  72 NE7       30.12R
6HR MIN TEMP:  63; 6HR MAX TEMP:  68;

SLIDELL        CLOUDY    60  51  72 NE5       30.12S
6HR MIN TEMP:  60; 6HR MAX TEMP:  67;

BATON ROUGE    LGT RAIN  57  55  93 NE7       30.10F
6HR MIN TEMP:  56; 6HR MAX TEMP:  65; 6HR PCP:  0.02;

BOOTHVILLE     CLOUDY    62  57  83 E3        30.10S
6HR MIN TEMP:  62; 6HR MAX TEMP:  69;

BELLE CHASSE   LGT RAIN  61  58  90 E6        30.10R
6HR MIN TEMP:  61; 6HR MAX TEMP:  68; 6HR PCP: TRACE;

BOGALUSA*        N/A     54  50  88 NE6       30.16S
6HR MIN TEMP:  54; 6HR MAX TEMP:  69; 6HR PCP:  0.03;

GALLIANO*      DRIZZLE   64  60  86 MISG      30.10R
6HR MIN TEMP:  64; 6HR MAX TEMP:  71;

NEW ROADS*     CLOUDY    54  54  98 NE6       30.10S
6HR MIN TEMP:  54; 6HR MAX TEMP:  60; 6HR PCP:  0.74;

GONZALES*      CLOUDY    60  56  85 NE6       30.11R
6HR MIN TEMP:  60; 6HR MAX TEMP:  68;

HAMMOND*       NOT AVBL
HOUMA*         PTCLDY    63  61  94 SE5       30.10R
PORT FOURCHON* CLOUDY    66  61  82 SE8       30.12R

$$

LAZ041-044-053-054-190100-
SOUTHWEST LOUISIANA

CITY           SKY/WX    TMP DP  RH WIND       PRES   REMARKS
LAKE CHARLES   CLOUDY    59  53  80 NE8       30.07R
6HR MIN TEMP:  59; 6HR MAX TEMP:  65;

LAFAYETTE      CLOUDY    60  54  80 NE6       30.09R
6HR MIN TEMP:  60; 6HR MAX TEMP:  67; 6HR PCP: TRACE;

PATTERSON      CLOUDY    63  61  94 E7        30.09R
6HR MIN TEMP:  61; 6HR MAX TEMP:  68;

SALT POINT       N/A     66  62  87 VRB5      30.05R
6HR MIN TEMP:  64; 6HR MAX TEMP:  69; 6HR PCP:  0.97;

NEW IBERIA     CLOUDY    65  55  70 NE9       30.09R
6HR MIN TEMP:  65; 6HR MAX TEMP:  69; 6HR PCP: TRACE;

CHENAULT AIRPK CLOUDY    57  54  88 NE6       30.08R

$$

LAZ027-028-190100-
CENTRAL LOUISIANA

CITY           SKY/WX    TMP DP  RH WIND       PRES   REMARKS
FORT POLK      CLOUDY    53  52  96 NE6       30.11R
6HR MIN TEMP:  51; 6HR MAX TEMP:  56;

ALEXANDRIA INT CLOUDY    52  50  93 E5        30.11R
6HR MIN TEMP:  50; 6HR MAX TEMP:  53; 6HR PCP: TRACE;

ALEXANDRIA     CLOUDY    53  49  86 E3        30.12S
6HR MIN TEMP:  51; 6HR MAX TEMP:  53;


$$

LAZ001-002-190100-
NORTHWEST LOUISIANA

CITY           SKY/WX    TMP DP  RH WIND       PRES   REMARKS
SHREVEPORT     CLOUDY    51  47  86 E6        30.13R
6HR MIN TEMP:  49; 6HR MAX TEMP:  52;

BARKSDALE AFB  NOT AVBL
DTN SHREVEPORT CLOUDY    50  45  83 E3        30.14R
6HR MIN TEMP:  48; 6HR MAX TEMP:  51;


$$

LAZ014-016-190100-
NORTHEAST LOUISIANA

CITY           SKY/WX    TMP DP  RH WIND       PRES   REMARKS
MONROE         CLOUDY    51  46  83 NE5       30.16R
6HR MIN TEMP:  49; 6HR MAX TEMP:  55;

TALLULAH       CLOUDY    49  44  83 SE3       30.16R
6HR MIN TEMP:  49; 6HR MAX TEMP:  54;


$$




USA.gov is the U.S. government's official web portal to all federal, state and local government web resources and services.